SENTINEL-2C

Last updated on Wed Sep 17 2025 00:02:32 GMT+0000 (Coordinated Universal Time)

1 60989U 24157A 25259.46640583 .00000128 00000+0 65467-4 0 9992 2 60989 98.5616 333.2396 0001200 89.5071 270.6250 14.30821756 53840
UTC large
Height (km)
Speed (km/s)
/
Latitude / Longitude
Inclination (degrees)
Orbital Period (minutes)
Azimuth
Elevation
Range (km)
Doppler Factor

Next 0 passes for location: London (51.5072 / 0.1276)

Sorry there are no passes over London.